Location: La Plant
(45.1447°N, 100.6515°W)
Time: 19:52:05
(UTC+00:00)

N. Korean satellite - Visible Passes

Search period start: 29 November 2020 00:00
Search period end: 09 December 2020 00:00
Orbit: 452 x 504 km, 97.2° (Epoch: 29 November)

Date Brightness Start Highest point End Pass type
(mag) Time Alt. Az. Time Alt. Az. Time Alt. Az.
29 Nov 9.6 11:19:54 10° NE 11:22:18 17° E 11:24:43 10° SE visible
29 Nov 7.2 12:52:27 10° N 12:55:45 34° WNW 12:59:03 10° SW visible
30 Nov 6.4 12:25:55 10° N 12:29:31 74° WNW 12:33:10 10° SSW visible
01 Dec 10.3 00:39:34 10° W 00:39:50 10° W 00:40:05 10° W visible
01 Dec 7.5 11:59:40 10° NNE 12:03:13 50° E 12:06:46 10° S visible
02 Dec 9.4 00:10:38 10° SW 00:13:17 21° W 00:15:58 10° NW visible
02 Dec 9.0 11:33:46 10° NE 11:36:47 24° E 11:39:49 10° SSE visible
02 Dec 7.7 13:07:05 10° NNW 13:10:02 24° WNW 13:13:01 10° WSW visible
02 Dec 7.8 23:43:32 10° S 23:46:49 43° W 23:50:09 10° NNW visible
03 Dec 10.0 11:08:40 10° ENE 11:10:16 12° E 11:11:53 10° ESE visible
03 Dec 6.8 12:40:20 10° N 12:43:50 48° WNW 12:47:23 10° SSW visible
04 Dec 6.7 12:13:54 10° NNE 12:17:33 79° ESE 12:21:14 10° S visible
05 Dec 9.8 00:25:45 10° SW 00:27:41 14° W 00:29:38 10° WNW visible
05 Dec 8.2 11:47:45 10° NNE 11:51:10 36° E 11:54:35 10° SSE visible
05 Dec 8.1 13:21:48 10° NNW 13:24:14 17° WNW 13:26:40 10° WSW visible
05 Dec 8.8 23:58:07 10° SSW 00:01:09 29° W 00:04:14 10° NW visible
06 Dec 9.5 11:22:04 10° NE 11:24:40 18° E 11:27:16 10° SE visible
06 Dec 7.3 12:54:46 10° N 12:58:04 32° WNW 13:01:23 10° SW visible
06 Dec 7.0 23:31:17 10° S 23:34:42 64° W 23:38:11 10° NNW visible
07 Dec 6.5 12:28:09 10° N 12:31:47 68° WNW 12:35:27 10° SSW visible
08 Dec 7.3 12:01:49 10° NNE 12:05:26 55° E 12:09:04 10° S visible
08 Dec 8.5 13:36:45 10° NW 13:38:19 12° WNW 13:39:52 10° W visible
